Weather Roundup
Issued by NWS Chicago, IL

Home | Current Version | Previous Version | Graphics & Text | Print | Product List | Glossary On
Versions: 1 2 3 4 5 6 7 8 9 10 11 12 13 14 15 16 17 18 19 20 21 22 23 24 25 26 27 28 29 30 31 32 33 34 35 36 37 38 39 40 41 42 43 44 45 46 47 48 49 50
080
NZUS59 KLOT 181902
HRRLOT

CHICAGO AREA WEATHER ROUNDUP
NATIONAL WEATHER SERVICE CHICAGO/ROMEOVILLE IL
100 PM CST WED JAN 18 2017

NOTE: "FAIR" INDICATES FEW OR NO CLOUDS BELOW 12,000 FEET WITH NO
SIGNIFICANT WEATHER AND/OR OBSTRUCTIONS TO VISIBILITY.

* THESE STATIONS ARE NOT UNDER NWS QUALITY CONTROL. THEY ALSO MAY NOT
  REPORT WEATHER SUCH AS PRECIPITATION OR FOG.

ILZ005-006-012>014-019>023-182000-
NORTHEAST ILLINOIS

CITY           SKY/WX    TMP DP  RH WIND       PRES   REMARKS
OHARE          CLOUDY    34  32  92 SW13G21   30.07F FOG     WCI  25
MIDWAY         CLOUDY    33  32  96 SW14G21   30.08F FOG     WCI  23
AURORA         CLOUDY    35  31  85 SW15      30.09F WCI  25
LANSING*       CLOUDY    35  35 100 SW10      30.11F FOG     WCI  27
JOLIET*        CLOUDY    38  33  85 SW10G21   30.11F
WAUKEGAN       CLOUDY    35  33  92 SW20G25   30.03F WCI  24
DUPAGE AIRPORT CLOUDY    35  31  85 SW16      30.07F WCI  25
WHEELING       CLOUDY    35  32  88 SW12      30.07F WCI  27
KANKAKEE*      CLOUDY    38  34  84 SW16      30.13F
MORRIS*        CLOUDY    36  32  85 SW10      30.10F
LEWIS AIRPORT* CLOUDY    36  35  97 SW14      30.09F
NORTHERLY ISL    N/A     35  33  92 W5          N/A  WCI  31
$$

WIZ051-052-058>065-066-070>072-182000-
SOUTHEAST WISCONSIN

CITY           SKY/WX    TMP DP  RH WIND       PRES   REMARKS
MILWAUKEE      PTSUNNY   37  32  82 SW13      30.02R
KENOSHA*       CLOUDY    35  32  88 SW14      30.03F WCI  26
RACINE*        CLOUDY    36  31  82 SW14      30.04S
WAUKESHA       CLOUDY    34  32  93 SW12G18   30.02R WCI  25
$$

INZ001>003-010>013-019-020-182000-
NORTHWEST INDIANA

CITY           SKY/WX    TMP DP  RH WIND       PRES   REMARKS
GARY*          CLOUDY    36  34  93 SW13      30.11F FOG
MICHIGAN CITY* NOT AVBL
RENSSELAER*    NOT AVBL
VALPARAISO     CLOUDY    35  34  96 SW15      30.11F FOG     WCI  25
$$

LMZ740>746-182000-
SOUTHERN LAKE MICHIGAN

STATION/POSITION TIME  SKY/WX   TEMP WIND        PRES    VSBY
                                AIR  DIR/SP/G
                 (UTC)          (F)  (DEG/KT/KT) (MB)    (MI)
HARRISON CRIB    1840            35  210/ 21/ 23   N/A
BURNHAM HARBOR   1900            35  190/  5/ 14   N/A
CALUMET HARBOR   1824            34  210/ 10/ 17 1018.6
BURNS HARBOR     1840            34  210/ 16/ 20 1019.6F
MICHIGAN CITY    NOT AVBL
$$

ABBREVIATIONS USED IN REMARKS
   TC - TEMPERATURE IN CELSIUS
  WCI - WIND CHILL INDEX
   HX - HEAT INDEX
  VSB - VISIBILITY
$$




USA.gov is the U.S. government's official web portal to all federal, state and local government web resources and services.